Weather History for Poplar Bluff, MO

Change the Weather History Date:

Monday, January 2, 2012

  Actual Average Record
Temperature  
Mean Temperature 34 °F -  
Max Temperature 39 °F 40 °F 69 °F (2000)
Min Temperature 28 °F 23 °F -2 °F (1928)
Degree Days  
Heating Degree Days 32    
Moisture  
Dew Point 7 °F    
Average Humidity 33    
Maximum Humidity 46    
Minimum Humidity 23    
Precipitation  
Precipitation 0.00 in - - ()
Sea Level Pressure  
Sea Level Pressure 30.44 in    
Wind  
Wind Speed 15 mph (NW)    
Max Wind Speed 24 mph    
Max Gust Speed 37 mph    
Visibility 10 miles    
Events      
Averages and records for this station are not official NWS values.
T = Trace of Precipitation, MM = Missing Value Source: NWS Daily Summary

Daily Weather History Graph

Daily Weather History Graph

Search for Another Location

Airport:

Trip Planner

Search our weather history database for the weather conditions in past years. The results will help you decide how hot, cold, wet, or windy it might be!

Date:

Astronomy

Jan. 02, 2012 Rise Set
Actual Time 7:14 AM CST 4:56 PM CST
Civil Twilight 6:45 AM CST 5:25 PM CST
Nautical Twilight 6:12 AM CST 5:57 PM CST
Astronomical Twilight 5:41 AM CST 6:29 PM CST
Moon 12:09 PM CST (1/2) 1:11 AM CST (1/2)
Length of Visible Light 10h 39m
Length of Day
9h 42m
Waxing Gibbous, 64% of the Moon is Illuminated
Jan 2
Waxing Gibbous
Jan 9
Full
Jan 16
Last Quarter
Jan 23
New
Jan 30
First Quarter

Hourly Weather History & Observations

Time (CST) Temp. Windchill Dew Point Humidity Pressure Visibility Wind Dir Wind Speed Gust Speed Precip Events Conditions
1:53 AM 37.9 °F 29.6 °F 10.9 °F 33% 30.41 in 10.0 mi NW 13.8 mph - N/A   Clear
2:53 AM 36.0 °F 27.5 °F 12.0 °F 37% 30.41 in 10.0 mi WNW 12.7 mph - N/A   Clear
3:53 AM 35.1 °F 24.8 °F 12.9 °F 40% 30.42 in 10.0 mi NW 17.3 mph - N/A   Clear
4:53 AM 33.1 °F 23.4 °F 14.0 °F 46% 30.42 in 10.0 mi NW 13.8 mph - N/A   Clear
5:53 AM 32.0 °F 22.5 °F 12.9 °F 45% 30.42 in 10.0 mi WNW 12.7 mph - N/A   Clear
6:53 AM 30.9 °F 22.2 °F 12.0 °F 46% 30.43 in 10.0 mi West 10.4 mph 18.4 mph N/A   Clear
7:53 AM 32.0 °F 24.2 °F 12.9 °F 45% 30.43 in - West 9.2 mph - N/A   Unknown
10:53 AM 36.0 °F 25.3 °F 7.0 °F 30% 30.45 in 10.0 mi NW 19.6 mph 35.7 mph N/A   Clear
11:53 AM 37.9 °F 27.6 °F 3.9 °F 24% 30.43 in 10.0 mi NW 20.7 mph 36.8 mph N/A   Clear
12:53 PM 39.0 °F 29.0 °F 5.0 °F 24% 30.40 in 10.0 mi NW 20.7 mph 33.4 mph N/A   Clear
1:53 PM 39.9 °F 31.1 °F 5.0 °F 23% 30.39 in 10.0 mi WNW 17.3 mph 34.5 mph N/A   Clear
2:53 PM 39.9 °F 30.5 °F 5.0 °F 23% 30.39 in 10.0 mi NW 19.6 mph 25.3 mph N/A   Clear
3:53 PM 37.9 °F 26.8 °F 3.0 °F 23% 30.41 in 10.0 mi NW 24.2 mph 33.4 mph N/A   Clear
4:53 PM 36.0 °F 27.5 °F 3.0 °F 25% 30.42 in 10.0 mi NW 12.7 mph - N/A   Clear
5:53 PM 35.1 °F 24.8 °F 3.0 °F 26% 30.44 in 10.0 mi NW 17.3 mph 26.5 mph N/A   Clear
6:53 PM 34.0 °F 24.6 °F 3.9 °F 28% 30.46 in 10.0 mi NW 13.8 mph 21.9 mph N/A   Clear
7:53 PM 33.1 °F 22.6 °F 3.9 °F 29% 30.48 in 10.0 mi NW 16.1 mph 23.0 mph N/A   Clear
8:53 PM 32.0 °F 19.2 °F 5.0 °F 32% 30.50 in 10.0 mi NNW 23.0 mph 28.8 mph N/A   Clear
9:53 PM 30.9 °F 19.8 °F 7.0 °F 37% 30.52 in 10.0 mi North 16.1 mph 23.0 mph N/A   Clear
10:53 PM 28.9 °F 21.1 °F 8.1 °F 41% 30.52 in 10.0 mi NNW 8.1 mph - N/A   Clear
11:53 PM 28.9 °F 18.6 °F 6.1 °F 38% 30.52 in 10.0 mi NNW 12.7 mph - N/A   Clear